Weather History for Rensselaer, IN

Change the Weather History Date:

Friday, May 30, 2014

  Actual Average (KVPZ) Record (KVPZ)
Temperature  
Mean Temperature 70 °F 64 °F  
Max Temperature 82 °F 75 °F 90 °F (2010)
Min Temperature 59 °F 53 °F 44 °F (2001)
Degree Days  
Heating Degree Days 0 4  
Month to date heating degree days 216  
Since 1 July heating degree days 6275  
Cooling Degree Days 6 3  
Month to date cooling degree days 40  
Year to date cooling degree days 45  
Growing Degree Days 20 (Base 50)    
Moisture  
Dew Point 54 °F    
Average Humidity 59    
Maximum Humidity 100    
Minimum Humidity 26    
Precipitation  
Precipitation 0.00 in 0.10 in 1.12 in (2004)
Month to date precipitation 3.70  
Year to date precipitation 12.88  
Sea Level Pressure  
Sea Level Pressure 30.14 in    
Wind  
Wind Speed 8 mph (ENE)    
Max Wind Speed 15 mph    
Max Gust Speed 21 mph    
Visibility 10 miles    
Events      
T = Trace of Precipitation, MM = Missing Value Source: NWS Daily Summary

Daily Weather History Graph

Daily Weather History Graph

Search for Another Location

Airport:

Trip Planner

Search our weather history database for the weather conditions in past years. The results will help you decide how hot, cold, wet, or windy it might be!

Date:

Astronomy

May. 30, 2014 Rise Set
Actual Time 5:19 AM CDT 8:13 PM CDT
Civil Twilight 4:47 AM CDT 8:45 PM CDT
Nautical Twilight 4:06 AM CDT 9:27 PM CDT
Astronomical Twilight 3:18 AM CDT 10:14 PM CDT
Moon 7:04 AM CDT (5/30) 9:48 PM CDT (5/30)
Length of Visible Light 15h 58m
Length of Day
14h 53m
Waxing Crescent, 4% of the Moon is Illuminated
May 30
Waxing Crescent
Jun 5
First Quarter
Jun 12
Full
Jun 19
Last Quarter
Jun 27
New

Hourly Weather History & Observations

Time (CDT) Temp. Dew Point Humidity Pressure Visibility Wind Dir Wind Speed Gust Speed Precip Events Conditions
12:15 AM 62.6 °F 59.0 °F 88% 30.10 in 10.0 mi NNE 8.1 mph - N/A   Clear
12:35 AM 62.6 °F 59.0 °F 88% 30.10 in 10.0 mi NNE 8.1 mph - N/A   Clear
12:55 AM 62.6 °F 59.0 °F 88% 30.10 in 10.0 mi NNE 6.9 mph - N/A   Clear
1:15 AM 62.6 °F 59.0 °F 88% 30.10 in 10.0 mi NE 5.8 mph - N/A   Clear
1:35 AM 60.8 °F 59.0 °F 94% 30.11 in 10.0 mi NE 5.8 mph - N/A   Clear
1:55 AM 60.8 °F 59.0 °F 94% 30.11 in 10.0 mi NNE 6.9 mph - N/A   Clear
2:15 AM 60.8 °F 59.0 °F 94% 30.11 in 10.0 mi NNE 5.8 mph - N/A   Clear
2:35 AM 60.8 °F 59.0 °F 94% 30.11 in 10.0 mi ENE 4.6 mph - N/A   Clear
2:55 AM 60.8 °F 59.0 °F 94% 30.11 in 10.0 mi NE 3.5 mph - N/A   Clear
3:15 AM 60.8 °F 59.0 °F 94% 30.11 in 10.0 mi East 3.5 mph - N/A   Clear
3:35 AM 60.8 °F 59.0 °F 94% 30.11 in 10.0 mi ESE 3.5 mph - N/A   Clear
4:15 AM 60.8 °F 59.0 °F 94% 30.11 in 10.0 mi ENE 3.5 mph - N/A   Clear
4:35 AM 59.0 °F 59.0 °F 100% 30.12 in 10.0 mi NE 5.8 mph - N/A   Clear
4:55 AM 59.0 °F 59.0 °F 100% 30.12 in 10.0 mi ENE 4.6 mph - N/A   Clear
5:15 AM 59.0 °F 59.0 °F 100% 30.12 in 10.0 mi ENE 4.6 mph - N/A   Clear
5:35 AM 59.0 °F 59.0 °F 100% 30.12 in 5.0 mi ENE 5.8 mph - N/A   Clear
5:55 AM 59.0 °F 59.0 °F 100% 30.13 in 7.0 mi East 5.8 mph - N/A   Clear
6:15 AM 60.8 °F 59.0 °F 94% 30.15 in 10.0 mi ENE 6.9 mph - N/A   Clear
6:35 AM 62.6 °F 59.0 °F 88% 30.15 in 10.0 mi ENE 8.1 mph - N/A   Clear
6:55 AM 62.6 °F 57.2 °F 82% 30.15 in 10.0 mi ENE 8.1 mph - N/A   Clear
7:15 AM 62.6 °F 57.2 °F 82% 30.16 in 10.0 mi East 8.1 mph - N/A   Clear
7:35 AM 64.4 °F 55.4 °F 73% 30.17 in 10.0 mi East 10.4 mph - N/A   Clear
7:55 AM 64.4 °F 55.4 °F 73% 30.17 in 10.0 mi East 8.1 mph - N/A   Clear
8:15 AM 68.0 °F 55.4 °F 64% 30.18 in 10.0 mi East 10.4 mph - N/A   Clear
8:35 AM 68.0 °F 55.4 °F 64% 30.19 in 10.0 mi East 11.5 mph - N/A   Clear
8:55 AM 69.8 °F 55.4 °F 60% 30.19 in 10.0 mi East 9.2 mph - N/A   Clear
9:15 AM 71.6 °F 55.4 °F 57% 30.19 in 10.0 mi East 11.5 mph 16.1 mph N/A   Clear
9:35 AM 71.6 °F 53.6 °F 53% 30.19 in 10.0 mi East 9.2 mph - N/A   Clear
9:55 AM 73.4 °F 53.6 °F 50% 30.19 in 10.0 mi East 10.4 mph - N/A   Clear
10:15 AM 73.4 °F 53.6 °F 50% 30.19 in 10.0 mi East 9.2 mph - N/A   Clear
10:35 AM 75.2 °F 51.8 °F 44% 30.18 in 10.0 mi East 11.5 mph 16.1 mph N/A   Clear
10:55 AM 77.0 °F 51.8 °F 41% 30.18 in 10.0 mi ENE 10.4 mph - N/A   Clear
11:15 AM 77.0 °F 51.8 °F 41% 30.17 in 10.0 mi East 8.1 mph - N/A   Clear
11:35 AM 77.0 °F 51.8 °F 41% 30.17 in 10.0 mi ENE 6.9 mph - N/A   Clear
11:55 AM 78.8 °F 48.2 °F 34% 30.17 in 10.0 mi NE 12.7 mph - N/A   Clear
12:15 PM 78.8 °F 48.2 °F 34% 30.16 in 10.0 mi NE 12.7 mph - N/A   Clear
12:35 PM 78.8 °F 44.6 °F 30% 30.16 in 10.0 mi East 15.0 mph 19.6 mph N/A   Clear
12:55 PM 80.6 °F 46.4 °F 30% 30.16 in 10.0 mi ENE 11.5 mph 19.6 mph N/A   Clear
1:15 PM 80.6 °F 46.4 °F 30% 30.14 in 10.0 mi ENE 11.5 mph 16.1 mph N/A   Clear
1:35 PM 80.6 °F 46.4 °F 30% 30.14 in 10.0 mi NE 13.8 mph 20.7 mph N/A   Clear
1:55 PM 80.6 °F 44.6 °F 28% 30.14 in 10.0 mi East 11.5 mph 18.4 mph N/A   Clear
2:15 PM 82.4 °F 46.4 °F 28% 30.13 in 10.0 mi NE 11.5 mph 20.7 mph N/A   Clear
2:35 PM 82.4 °F 48.2 °F 30% 30.13 in 10.0 mi NE 11.5 mph 19.6 mph N/A   Clear
2:55 PM 82.4 °F 46.4 °F 28% 30.12 in 10.0 mi ENE 15.0 mph 20.7 mph N/A   Clear
3:15 PM 82.4 °F 44.6 °F 26% 30.12 in 10.0 mi ENE 12.7 mph - N/A   Clear
3:35 PM 82.4 °F 44.6 °F 26% 30.12 in 10.0 mi ENE 12.7 mph 19.6 mph N/A   Clear
4:15 PM 82.4 °F 48.2 °F 30% 30.11 in 10.0 mi ENE 12.7 mph 17.3 mph N/A   Clear
4:35 PM 82.4 °F 48.2 °F 30% 30.11 in 10.0 mi ENE 10.4 mph - N/A   Clear
4:55 PM 82.4 °F 50.0 °F 32% 30.11 in 10.0 mi NE 12.7 mph 16.1 mph N/A   Clear
5:15 PM 82.4 °F 50.0 °F 32% 30.11 in 10.0 mi NE 13.8 mph - N/A   Clear
5:35 PM 82.4 °F 50.0 °F 32% 30.11 in 10.0 mi ENE 12.7 mph - N/A   Clear
5:55 PM 82.4 °F 50.0 °F 32% 30.10 in 10.0 mi ENE 12.7 mph 18.4 mph N/A   Clear
6:15 PM 82.4 °F 48.2 °F 30% 30.10 in 10.0 mi NE 13.8 mph - N/A   Clear
6:35 PM 82.4 °F 50.0 °F 32% 30.10 in 10.0 mi ENE 12.7 mph - N/A   Clear
6:55 PM 82.4 °F 50.0 °F 32% 30.11 in 10.0 mi ENE 11.5 mph - N/A   Clear
7:15 PM 80.6 °F 50.0 °F 34% 30.11 in 10.0 mi ENE 10.4 mph - N/A   Clear
7:35 PM 78.8 °F 51.8 °F 39% 30.11 in 10.0 mi ENE 6.9 mph - N/A   Clear
7:55 PM 77.0 °F 53.6 °F 44% 30.11 in 10.0 mi ENE 6.9 mph - N/A   Clear
8:15 PM 75.2 °F 53.6 °F 47% 30.11 in 10.0 mi ENE 5.8 mph - N/A   Clear
8:35 PM 71.6 °F 55.4 °F 57% 30.12 in 10.0 mi ENE 4.6 mph - N/A   Clear
8:55 PM 69.8 °F 55.4 °F 60% 30.12 in 10.0 mi ENE 4.6 mph - N/A   Clear
9:15 PM 69.8 °F 55.4 °F 60% 30.13 in 10.0 mi East 3.5 mph - N/A   Clear
9:35 PM 69.8 °F 55.4 °F 60% 30.14 in 10.0 mi ENE 3.5 mph - N/A   Clear
9:55 PM 69.8 °F 55.4 °F 60% 30.14 in 10.0 mi NE 4.6 mph - N/A   Clear
10:15 PM 68.0 °F 55.4 °F 64% 30.15 in 10.0 mi ENE 3.5 mph - N/A   Clear
10:35 PM 68.0 °F 55.4 °F 64% 30.15 in 10.0 mi ENE 4.6 mph - N/A   Clear
10:55 PM 68.0 °F 55.4 °F 64% 30.15 in 10.0 mi ENE 4.6 mph - N/A   Clear
11:15 PM 68.0 °F 55.4 °F 64% 30.15 in 10.0 mi ENE 4.6 mph - N/A   Clear
11:35 PM 66.2 °F 55.4 °F 68% 30.15 in 10.0 mi ENE 4.6 mph - N/A   Clear
11:55 PM 64.4 °F 55.4 °F 73% 30.16 in 10.0 mi ENE 4.6 mph - N/A   Clear